YAOGAN-4

Last updated on Mon Sep 21 2026 00:02:45 GMT+0000 (Coordinated Universal Time)

1 33446U 08061A 26263.41965394 .00000544 00000+0 72817-4 0 9996 2 33446 97.9331 196.2436 0015462 117.4029 242.8760 14.83348678959786
UTC large
Height (km)
Speed (km/s)
/
Latitude / Longitude
Inclination (degrees)
Orbital Period (minutes)
Azimuth
Elevation
Range (km)
Doppler Factor

Next 0 passes for location: London (51.5072 / 0.1276)

No passes found over London.
YAOGAN-4